Vorticity
9 10 10 11 11 11 11 11 11 12 12 12 12 12 12 12 12 12 12 12 13 13 13 13 13 13 13 14 13 13 13 13 12 12 12 12 12 12 11 11 11 11 11 11 11 10 9 9 9 9 9 10 11 13 16 18 19 18 16 14 12 10 9 10 11 11 12 13 13
10 10 10 11 11 11 11 12 12 12 13 13 12 12 12 12 12 12 12 13 13 12 12 13 13 13 14 14 14 14 14 14 13 13 13 12 13 13 12 12 12 12 12 12 12 11 11 10 9 9 9 9 11 12 14 17 19 19 18 16 13 10 9 9 10 10 11 12 12
10 10 11 11 12 12 12 13 13 13 13 13 13 12 12 12 12 12 12 13 12 12 12 13 13 14 14 14 15 15 15 14 14 14 14 13 13 14 14 14 14 13 13 13 12 12 12 11 10 10 10 10 10 11 13 15 18 20 20 18 14 12 10 9 8 8 9 10 11
10 11 11 12 13 13 13 13 13 13 13 13 13 13 12 12 12 12 12 12 12 13 13 13 13 14 14 14 15 15 15 15 15 15 15 15 15 15 15 15 15 14 14 13 13 13 12 12 12 11 11 11 11 11 13 14 17 19 21 20 17 15 12 9 8 7 7 7 9
11 12 13 13 13 13 13 13 13 13 13 13 13 13 13 13 13 12 12 13 13 13 13 12 13 13 14 14 14 15 15 16 16 16 16 15 15 15 15 15 15 15 14 14 13 13 13 13 13 13 12 12 11 12 12 13 16 18 20 21 20 18 15 11 9 7 6 6 7
12 13 13 14 14 14 14 14 14 13 13 13 13 13 13 13 12 12 13 13 12 12 12 12 13 13 13 13 14 15 15 16 16 16 16 15 15 15 14 14 14 14 14 14 14 14 14 14 14 14 14 13 13 13 13 14 16 17 19 20 21 20 18 14 11 8 6 5 6
13 13 14 14 14 14 14 14 14 14 13 13 13 13 12 12 12 12 12 12 12 12 12 12 12 13 13 13 14 14 15 15 16 15 15 15 14 13 13 13 13 13 14 14 15 15 16 17 17 17 16 16 15 15 15 16 17 18 19 20 21 21 20 17 13 10 7 5 5
14 14 14 14 14 14 14 13 14 14 14 14 13 13 12 11 11 11 11 12 12 12 12 12 12 12 13 13 13 14 15 15 15 15 14 13 13 12 12 12 12 13 14 15 17 18 19 20 20 20 20 20 19 18 18 17 17 18 19 20 20 21 21 20 17 13 10 7 5
14 14 14 14 14 14 13 13 13 13 13 13 13 12 12 11 11 11 11 12 12 12 12 12 12 12 12 13 13 14 14 15 14 14 13 12 11 11 11 11 11 12 14 17 20 22 23 23 23 23 23 24 23 21 19 16 16 17 18 19 20 20 20 20 19 17 14 10 7
14 14 14 13 13 13 13 13 13 13 13 12 12 12 11 11 11 11 11 11 11 12 12 12 12 12 12 13 13 14 14 14 14 13 12 11 10 10 10 10 11 12 15 20 25 26 26 23 22 22 22 23 22 20 17 15 14 14 16 17 18 19 19 19 20 19 17 14 11
14 13 13 13 13 13 13 13 13 12 12 11 11 11 11 11 11 11 11 11 11 11 12 12 11 12 12 13 13 14 14 14 14 13 11 10 9 9 9 10 11 13 18 25 30 29 25 20 18 15 14 15 17 17 16 14 13 13 14 16 17 17 17 17 18 19 19 18 15
13 13 13 13 12 12 12 12 12 11 11 11 11 10 10 11 10 10 10 10 11 11 11 11 11 11 12 13 13 14 14 14 13 12 11 10 9 8 8 9 10 14 22 32 32 26 18 12 9 9 10 10 13 15 16 13 11 11 13 15 16 16 15 14 16 17 18 19 17
13 12 12 12 12 12 12 11 11 11 11 10 10 10 10 10 9 9 9 9 9 10 10 11 11 11 12 12 13 14 14 14 13 12 11 9 9 8 8 8 10 16 26 37 28 17 7 1 1 7 13 14 16 15 13 10 9 10 11 13 14 14 14 13 14 16 17 19 18
12 12 12 12 11 11 11 11 11 11 10 10 10 9 9 9 9 8 8 8 8 9 9 9 10 11 11 12 13 14 14 15 14 13 11 9 8 8 7 7 10 19 30 39 19 4 -4 -6 -1 8 16 19 20 18 15 13 13 13 12 11 12 12 13 13 13 14 16 17 18
12 11 11 11 11 11 11 11 10 10 10 9 9 9 8 8 8 8 8 8 8 8 8 8 9 10 11 11 12 13 14 15 14 13 12 10 8 7 6 6 10 22 35 38 9 -6 -11 -9 -1 8 14 16 18 20 22 23 22 19 16 13 12 11 11 12 13 14 15 16 18
11 11 11 11 11 11 11 10 10 9 9 9 8 8 8 8 8 8 8 8 7 7 8 8 8 9 10 11 11 12 13 15 15 14 13 11 9 7 5 5 10 25 39 37 4 -11 -13 -10 1 8 11 9 8 11 17 24 26 24 20 16 13 12 12 13 14 15 16 17 18
11 11 11 11 10 10 10 9 9 9 8 8 7 7 7 7 7 8 9 9 8 8 8 8 8 9 9 10 10 11 12 14 16 15 14 12 9 7 5 3 10 28 42 34 -0 -13 -14 -9 3 11 13 9 3 2 5 13 20 23 22 18 16 14 13 14 15 16 17 17 18
10 10 10 10 10 10 9 9 8 8 8 7 7 7 7 7 8 8 9 9 9 9 8 8 9 9 9 9 9 10 11 13 15 16 16 14 11 8 5 2 10 30 42 28 -3 -15 -14 -9 4 12 15 15 12 8 6 7 13 17 19 19 17 15 14 14 15 15 16 17 18
10 10 10 10 10 9 9 8 8 8 8 8 7 7 7 8 8 9 9 10 11 11 10 9 9 10 10 9 9 9 10 11 14 15 16 16 13 10 6 1 9 30 41 25 -3 -13 -13 -8 2 9 13 17 21 20 17 14 13 14 15 17 16 15 14 14 14 14 14 16 17
10 10 10 10 9 9 9 9 9 8 8 8 8 8 8 9 9 10 10 11 11 12 12 11 11 11 11 11 10 9 9 10 12 14 16 17 15 12 7 1 8 28 40 24 -0 -12 -14 -7 -3 1 7 18 23 24 23 22 18 16 14 14 14 13 12 12 11 11 12 13 16
10 10 10 10 9 9 9 9 9 9 9 9 9 9 9 9 10 11 11 11 11 12 13 14 14 13 13 12 12 11 10 9 10 12 15 17 17 14 10 2 6 24 37 26 1 -13 -17 -11 -14 -9 4 24 24 24 24 24 20 16 14 13 12 11 11 11 10 10 9 10 13
10 10 10 10 10 9 9 9 10 10 10 10 10 10 10 10 11 11 11 11 12 13 15 16 17 17 16 15 14 13 12 11 10 11 13 16 17 16 12 5 5 20 34 29 5 -12 -19 -12 -26 -14 11 31 27 25 25 24 20 16 13 12 11 11 11 12 10 9 9 9 10
10 10 10 10 10 10 10 10 10 10 10 10 10 10 10 10 11 11 12 13 14 15 17 18 19 20 20 20 18 16 14 13 12 11 12 15 16 17 15 8 4 16 30 34 11 -6 -15 -14 -37 -18 15 36 30 27 26 23 19 16 13 11 11 13 15 14 11 9 8 8 9
9 10 10 10 10 10 10 10 10 10 10 10 10 10 11 11 12 13 14 15 17 18 18 20 21 23 24 25 23 20 17 15 14 13 13 14 15 16 16 11 6 13 26 37 17 -1 -16 -24 -35 -19 10 37 32 28 26 23 19 16 12 10 14 18 18 14 10 8 7 8 10
9 10 10 10 10 10 10 10 10 10 10 10 10 11 12 13 14 16 17 18 19 19 20 20 21 23 25 28 28 26 22 19 17 16 15 15 15 16 16 14 9 13 23 37 24 3 -19 -38 -33 -22 -1 33 30 28 25 22 19 14 11 11 17 18 16 11 8 7 7 9 13
9 9 10 10 10 10 10 10 10 10 10 10 11 13 14 16 17 18 19 20 20 20 20 19 20 22 25 30 32 31 28 23 20 19 18 17 16 16 16 15 11 13 20 35 30 12 -12 -34 -32 -22 -3 25 26 26 25 22 18 14 13 17 19 15 11 9 7 7 8 11 15
9 9 9 10 10 10 10 10 10 10 11 12 13 15 16 17 18 20 21 20 20 19 18 18 20 22 26 31 36 36 33 28 24 22 20 19 18 17 16 15 13 13 17 29 33 22 2 -23 -34 -25 -6 13 21 25 25 22 18 16 17 21 18 14 10 8 6 6 7 11 14
8 9 9 9 10 10 10 10 11 11 12 13 15 16 17 19 20 21 20 19 18 17 17 19 21 23 27 33 38 39 36 31 27 24 22 21 20 19 17 15 14 14 16 23 32 29 16 -4 -20 -20 -11 3 16 22 24 22 18 18 19 19 15 16 15 7 4 4 7 11 10
8 9 9 10 10 10 11 11 12 13 13 14 16 17 19 21 21 20 18 16 16 16 17 18 20 23 27 32 37 38 36 32 28 25 24 23 22 20 18 16 15 14 15 19 29 32 24 4 -8 -15 -14 -3 12 20 22 20 18 18 17 14 14 18 18 6 3 6 11 13 10
9 9 10 11 11 11 11 12 13 13 14 15 17 19 21 21 19 18 16 14 14 15 16 16 18 22 25 30 33 35 33 30 27 25 25 24 23 21 19 18 16 14 15 17 25 30 30 21 13 1 -9 -6 10 17 19 17 16 14 12 10 14 17 15 5 5 9 14 15 15
10 10 11 11 11 12 12 12 13 14 15 17 19 21 21 20 17 15 14 13 13 14 15 16 18 21 25 29 32 32 31 28 26 25 24 24 23 22 21 19 17 15 15 16 22 28 29 19 17 15 8 -7 7 13 15 14 13 10 7 7 12 16 16 10 10 12 13 13 16
10 10 11 11 12 12 12 13 13 15 17 19 20 21 20 17 14 12 12 12 13 14 16 18 20 23 27 30 32 32 31 28 26 24 24 23 24 23 23 22 19 16 14 15 18 24 27 21 10 13 15 2 9 12 12 11 10 6 3 3 11 19 22 18 13 9 7 7 11
10 11 12 12 12 12 13 13 14 16 18 20 20 19 17 13 11 10 11 13 15 16 18 19 22 26 28 29 30 31 30 29 26 25 24 24 24 24 24 23 21 17 14 12 15 21 25 20 9 15 22 16 17 13 9 8 7 2 -3 -6 8 19 24 19 11 5 3 4 7
10 11 12 13 13 13 13 14 15 17 19 20 20 18 14 11 10 10 11 14 16 18 19 21 24 24 24 22 22 25 29 31 29 28 26 26 26 26 25 24 22 18 14 10 14 19 22 20 9 15 23 21 29 24 14 8 6 -0 -7 -12 1 13 20 17 12 11 11 9 9
11 11 12 13 13 13 13 14 16 18 19 19 18 16 13 11 9 10 11 13 16 18 20 22 22 20 17 14 15 19 26 32 33 32 31 29 28 27 26 25 23 20 15 11 14 15 17 20 15 5 -1 10 33 34 22 10 7 2 -4 -10 -5 4 13 17 17 21 22 16 12
11 12 12 13 13 14 14 15 16 18 19 19 18 16 14 11 9 9 10 12 15 18 20 20 19 16 13 9 10 14 21 30 35 35 32 29 28 26 25 24 24 21 18 15 14 11 12 20 18 -2 -14 4 31 35 26 12 7 5 2 -2 -5 -4 -2 -1 -2 5 12 12 11
11 12 12 13 13 14 15 15 16 17 19 20 19 17 15 12 9 9 10 12 15 18 20 20 17 14 10 6 6 10 16 26 34 34 30 24 24 23 22 22 23 22 20 17 12 9 11 19 17 2 -8 7 23 28 25 14 10 9 9 9 2 -4 -9 -11 -21 -24 -20 -12 -2
11 12 12 13 14 14 14 15 16 17 19 20 20 19 17 13 10 9 10 13 16 18 20 21 18 13 8 4 3 5 10 20 30 30 24 17 17 18 18 20 22 21 19 15 7 6 11 22 17 8 4 13 18 21 20 16 16 15 14 12 5 -3 -10 -13 -17 -19 -20 -25 -16
11 12 12 13 13 14 14 15 16 18 19 21 22 21 18 15 11 9 9 12 15 17 19 20 19 15 11 6 3 2 5 14 26 27 21 11 11 13 16 18 19 19 16 11 3 3 9 20 10 9 14 26 23 19 15 13 19 18 13 7 3 -1 -4 -4 -1 3 3 -6 -9
11 11 12 13 13 13 14 15 17 19 20 22 23 22 20 16 12 9 8 8 11 14 17 19 20 19 16 11 6 2 2 8 21 25 21 10 10 11 14 17 17 15 11 6 1 4 10 17 3 3 14 33 31 23 15 11 19 17 10 3 1 1 1 2 4 5 7 6 3
11 11 12 13 13 14 14 15 17 19 21 23 24 23 21 17 14 11 8 5 6 9 12 16 19 20 21 19 13 7 2 4 17 25 24 13 10 11 13 16 16 14 9 4 -0 7 16 20 -1 -4 8 28 33 29 21 13 18 16 9 2 1 2 4 4 2 2 2 2 -1
Height
3039 3036 3034 3032 3029 3027 3025 3023 3021 3018 3016 3014 3012 3010 3008 3006 3004 3002 3000 2998 2996 2995 2993 2991 2990 2988 2986 2985 2983 2982 2980 2979 2977 2976 2974 2973 2971 2970 2969 2968 2966 2965 2964 2963 2962 2961 2960 2959 2958 2957 2956 2956 2956 2955 2955 2954 2954 2953 2953 2953 2953 2953 2953 2953 2953 2953 2953 2953 2953
3037 3035 3033 3030 3028 3026 3023 3021 3019 3017 3014 3012 3010 3008 3006 3004 3002 3000 2998 2996 2995 2993 2991 2989 2988 2986 2985 2983 2981 2980 2978 2977 2975 2974 2972 2971 2969 2968 2967 2966 2964 2963 2962 2961 2960 2959 2958 2957 2956 2955 2954 2954 2953 2953 2952 2952 2951 2951 2951 2951 2951 2951 2951 2951 2951 2951 2951 2951 2951
3036 3033 3031 3029 3026 3024 3021 3019 3017 3015 3013 3011 3008 3006 3004 3002 3000 2998 2996 2995 2993 2991 2989 2987 2986 2984 2983 2981 2980 2978 2976 2975 2973 2972 2970 2969 2967 2966 2965 2964 2962 2961 2960 2959 2958 2957 2956 2955 2954 2953 2952 2951 2951 2951 2950 2950 2949 2949 2949 2948 2948 2948 2948 2948 2948 2949 2949 2949 2949
3034 3031 3029 3027 3024 3022 3020 3017 3015 3013 3011 3009 3007 3005 3002 3000 2998 2996 2995 2993 2991 2989 2987 2986 2984 2982 2981 2979 2977 2976 2974 2973 2971 2970 2968 2967 2966 2964 2963 2962 2961 2960 2958 2957 2956 2955 2954 2952 2951 2951 2950 2949 2949 2948 2948 2947 2947 2947 2946 2946 2946 2946 2946 2946 2946 2946 2946 2946 2946
3032 3030 3027 3025 3022 3020 3018 3016 3013 3011 3009 3007 3005 3003 3001 2999 2996 2995 2993 2991 2989 2987 2986 2984 2982 2980 2979 2977 2976 2974 2973 2971 2970 2968 2966 2965 2964 2962 2961 2960 2959 2958 2956 2955 2954 2953 2951 2951 2950 2949 2948 2947 2946 2946 2945 2945 2945 2944 2944 2944 2944 2944 2944 2944 2944 2944 2944 2944 2945
3031 3028 3026 3023 3021 3018 3016 3014 3011 3009 3007 3005 3003 3001 2999 2997 2995 2993 2991 2989 2987 2986 2984 2982 2980 2978 2977 2975 2974 2972 2971 2969 2968 2966 2965 2963 2962 2961 2960 2958 2957 2956 2955 2954 2952 2951 2950 2948 2947 2946 2946 2945 2944 2944 2943 2943 2942 2942 2942 2942 2941 2941 2941 2941 2941 2941 2942 2942 2942
3029 3026 3024 3021 3019 3017 3015 3012 3010 3008 3006 3004 3001 3000 2997 2995 2993 2991 2989 2987 2986 2984 2982 2980 2978 2976 2975 2973 2972 2970 2969 2967 2966 2965 2963 2962 2961 2959 2958 2957 2956 2955 2953 2952 2951 2949 2948 2947 2946 2945 2944 2943 2942 2942 2941 2941 2940 2940 2940 2939 2939 2939 2939 2939 2939 2939 2940 2940 2940
3027 3025 3022 3020 3017 3015 3013 3011 3008 3006 3004 3002 3000 2998 2996 2994 2991 2990 2987 2986 2984 2982 2980 2978 2976 2975 2973 2971 2970 2968 2967 2966 2964 2963 2961 2960 2959 2958 2956 2956 2954 2953 2952 2950 2949 2948 2946 2945 2944 2943 2942 2941 2941 2940 2939 2938 2938 2937 2937 2937 2937 2937 2937 2937 2937 2937 2937 2938 2938
3026 3023 3021 3018 3016 3014 3011 3009 3007 3005 3002 3000 2998 2996 2994 2992 2990 2988 2986 2984 2982 2980 2978 2976 2975 2973 2971 2970 2968 2966 2965 2964 2962 2961 2960 2959 2957 2956 2955 2954 2953 2952 2950 2949 2947 2946 2945 2944 2943 2941 2941 2940 2939 2938 2937 2936 2936 2935 2935 2935 2935 2935 2935 2935 2935 2935 2935 2936 2936
3024 3021 3019 3017 3014 3012 3010 3008 3005 3003 3001 2999 2996 2995 2992 2990 2988 2986 2984 2982 2980 2978 2976 2975 2973 2971 2969 2968 2966 2965 2963 2962 2961 2959 2958 2957 2956 2955 2954 2952 2951 2950 2949 2947 2946 2945 2944 2943 2942 2941 2940 2939 2938 2936 2936 2935 2934 2933 2933 2933 2933 2933 2933 2933 2933 2933 2933 2934 2934
3022 3020 3017 3015 3013 3011 3008 3006 3004 3001 2999 2997 2995 2993 2991 2989 2986 2984 2982 2981 2979 2977 2975 2973 2971 2969 2967 2966 2964 2963 2961 2960 2959 2957 2956 2955 2954 2953 2952 2951 2950 2949 2947 2946 2945 2944 2943 2942 2941 2940 2939 2938 2937 2935 2934 2933 2932 2931 2931 2931 2931 2931 2931 2931 2931 2931 2931 2932 2932
3021 3018 3016 3014 3011 3009 3007 3005 3002 3000 2998 2996 2993 2991 2989 2987 2985 2983 2981 2979 2977 2975 2973 2971 2969 2967 2966 2964 2962 2961 2959 2958 2957 2956 2955 2953 2952 2951 2951 2950 2948 2947 2946 2945 2944 2943 2942 2941 2941 2940 2938 2937 2936 2934 2933 2931 2931 2930 2931 2931 2931 2930 2930 2930 2930 2930 2930 2930 2930
3019 3017 3015 3012 3010 3007 3005 3003 3001 2998 2996 2994 2992 2990 2987 2985 2983 2981 2979 2977 2975 2973 2971 2970 2968 2966 2964 2962 2961 2959 2957 2956 2955 2954 2953 2952 2951 2950 2949 2948 2947 2946 2945 2944 2943 2942 2942 2941 2940 2939 2937 2936 2935 2933 2931 2930 2929 2930 2930 2930 2930 2929 2929 2928 2928 2928 2928 2928 2928
3018 3016 3013 3011 3008 3006 3004 3001 2999 2997 2995 2992 2990 2988 2986 2984 2981 2980 2977 2976 2973 2971 2970 2968 2966 2964 2962 2960 2958 2957 2956 2954 2953 2952 2951 2950 2949 2948 2947 2946 2946 2944 2943 2943 2942 2941 2941 2940 2939 2937 2936 2934 2933 2931 2930 2929 2929 2929 2929 2929 2928 2928 2927 2927 2927 2927 2927 2926 2926
3017 3014 3012 3009 3007 3005 3002 3000 2998 2995 2993 2991 2989 2986 2984 2982 2980 2978 2976 2973 2971 2970 2968 2966 2964 2962 2960 2958 2957 2955 2954 2952 2951 2950 2949 2948 2947 2946 2946 2945 2944 2943 2942 2941 2941 2941 2940 2939 2937 2936 2934 2932 2931 2930 2930 2929 2929 2928 2927 2927 2927 2926 2926 2926 2926 2926 2925 2925 2925
3016 3013 3011 3008 3006 3003 3001 2998 2996 2994 2991 2989 2987 2985 2982 2980 2978 2976 2974 2971 2969 2967 2966 2964 2962 2960 2958 2957 2955 2953 2952 2951 2949 2948 2947 2946 2946 2945 2944 2943 2942 2941 2941 2940 2940 2939 2939 2937 2936 2934 2932 2931 2930 2929 2929 2928 2927 2927 2926 2926 2926 2925 2925 2925 2924 2924 2923 2923 2923
3014 3012 3009 3007 3004 3002 2999 2997 2995 2992 2990 2988 2986 2983 2981 2979 2976 2974 2972 2970 2967 2965 2963 2961 2960 2958 2956 2955 2953 2951 2950 2948 2947 2946 2945 2944 2944 2943 2942 2942 2941 2940 2939 2939 2938 2938 2937 2936 2934 2932 2931 2930 2929 2928 2927 2927 2926 2926 2925 2925 2924 2924 2923 2923 2923 2922 2921 2921 2921
3013 3011 3008 3005 3003 3001 2998 2996 2993 2991 2988 2986 2984 2981 2979 2977 2974 2972 2970 2968 2965 2963 2961 2959 2957 2956 2954 2952 2951 2949 2947 2946 2945 2944 2943 2942 2941 2941 2941 2940 2939 2938 2937 2937 2937 2936 2936 2935 2933 2931 2930 2929 2928 2927 2926 2926 2925 2925 2924 2923 2923 2922 2922 2921 2921 2921 2920 2920 2919
3011 3009 3007 3004 3001 2999 2996 2994 2992 2989 2987 2984 2982 2980 2977 2975 2972 2970 2968 2966 2964 2961 2959 2957 2955 2953 2951 2950 2948 2947 2945 2944 2943 2942 2941 2940 2939 2939 2938 2938 2937 2936 2936 2935 2935 2935 2934 2933 2931 2930 2928 2927 2927 2926 2925 2924 2924 2923 2923 2922 2921 2921 2920 2920 2919 2919 2918 2918 2918
3010 3008 3005 3003 3000 2998 2995 2993 2990 2988 2985 2983 2980 2978 2975 2973 2971 2968 2966 2964 2961 2959 2957 2955 2952 2951 2949 2947 2946 2944 2943 2942 2941 2939 2938 2937 2937 2936 2936 2936 2935 2935 2934 2933 2933 2933 2932 2931 2930 2928 2927 2927 2926 2925 2923 2922 2922 2922 2921 2921 2920 2920 2919 2919 2918 2918 2917 2917 2916
3009 3006 3004 3001 2999 2996 2994 2991 2989 2986 2984 2981 2979 2976 2974 2971 2969 2966 2964 2961 2959 2957 2955 2952 2950 2948 2946 2945 2943 2942 2941 2939 2938 2937 2936 2935 2934 2934 2933 2933 2933 2932 2932 2931 2931 2931 2931 2930 2928 2927 2927 2927 2925 2923 2921 2921 2921 2920 2920 2920 2919 2918 2918 2917 2917 2916 2916 2916 2915
3008 3005 3002 3000 2997 2995 2992 2990 2987 2985 2982 2980 2977 2974 2972 2969 2966 2964 2961 2959 2956 2954 2952 2950 2947 2946 2943 2942 2940 2939 2937 2936 2936 2935 2933 2933 2932 2931 2931 2931 2931 2930 2930 2930 2929 2929 2929 2928 2926 2926 2927 2926 2923 2921 2920 2920 2919 2919 2918 2918 2917 2917 2917 2916 2916 2916 2915 2915 2914
3006 3004 3001 2999 2996 2993 2991 2988 2986 2983 2981 2978 2975 2972 2970 2967 2964 2962 2959 2956 2954 2951 2949 2947 2945 2942 2941 2939 2937 2936 2934 2933 2932 2932 2931 2930 2929 2929 2928 2928 2928 2928 2928 2927 2927 2927 2927 2926 2925 2926 2927 2925 2922 2920 2919 2919 2918 2917 2917 2916 2916 2916 2916 2916 2915 2915 2914 2914 2913
3005 3003 3000 2997 2995 2992 2990 2987 2984 2982 2979 2976 2973 2971 2968 2965 2962 2959 2957 2954 2951 2949 2946 2944 2942 2940 2938 2936 2934 2932 2931 2930 2929 2929 2928 2927 2927 2926 2926 2926 2925 2925 2925 2925 2925 2926 2925 2925 2924 2925 2926 2923 2921 2919 2918 2917 2917 2916 2916 2916 2916 2916 2915 2915 2914 2914 2913 2913 2912
3004 3001 2999 2996 2994 2991 2988 2986 2983 2980 2977 2974 2971 2968 2965 2962 2960 2957 2954 2951 2949 2946 2944 2941 2939 2936 2935 2933 2931 2929 2928 2927 2926 2925 2925 2925 2924 2924 2923 2923 2923 2923 2923 2923 2923 2924 2924 2923 2923 2925 2925 2922 2920 2918 2917 2916 2916 2916 2915 2915 2915 2915 2915 2914 2914 2913 2913 2912 2912
3003 3001 2998 2995 2992 2990 2987 2984 2981 2978 2975 2972 2969 2966 2963 2960 2957 2954 2952 2949 2946 2944 2941 2939 2936 2934 2931 2930 2928 2926 2925 2924 2923 2922 2921 2921 2921 2921 2921 2920 2920 2920 2921 2921 2921 2922 2922 2921 2922 2923 2924 2922 2919 2917 2916 2916 2915 2915 2915 2915 2915 2915 2914 2914 2913 2913 2912 2912 2912
3002 3000 2997 2994 2991 2988 2985 2982 2979 2976 2973 2970 2967 2964 2961 2958 2955 2952 2950 2947 2944 2941 2939 2936 2934 2931 2929 2926 2925 2923 2922 2921 2920 2919 2918 2918 2918 2918 2918 2918 2918 2918 2918 2919 2919 2920 2920 2920 2920 2921 2921 2921 2918 2916 2916 2915 2915 2915 2915 2915 2915 2914 2914 2913 2912 2912 2912 2912 2911
3001 2998 2996 2992 2989 2986 2983 2980 2976 2974 2971 2967 2965 2962 2959 2956 2953 2951 2948 2945 2942 2940 2937 2934 2932 2929 2926 2924 2922 2921 2919 2918 2917 2916 2916 2916 2916 2916 2916 2916 2916 2916 2916 2917 2917 2918 2918 2919 2919 2919 2920 2920 2917 2916 2915 2915 2915 2915 2915 2915 2914 2914 2914 2913 2912 2911 2911 2911 2911
3000 2997 2994 2990 2987 2984 2981 2977 2975 2972 2969 2966 2963 2960 2957 2954 2952 2949 2946 2944 2941 2938 2936 2933 2930 2927 2925 2922 2920 2919 2917 2916 2915 2914 2914 2914 2914 2914 2914 2914 2914 2915 2915 2916 2916 2916 2917 2917 2918 2918 2919 2918 2917 2916 2915 2915 2915 2915 2915 2914 2914 2914 2913 2912 2911 2911 2911 2911 2911
2998 2995 2991 2988 2985 2982 2979 2976 2973 2970 2967 2964 2961 2959 2956 2953 2951 2948 2945 2943 2940 2937 2934 2931 2929 2926 2923 2921 2919 2917 2916 2915 2914 2913 2912 2912 2912 2912 2912 2913 2913 2913 2914 2914 2915 2915 2916 2916 2917 2918 2919 2917 2916 2916 2915 2915 2915 2915 2915 2914 2914 2913 2913 2912 2911 2911 2910 2910 2909
2996 2993 2990 2987 2984 2981 2978 2975 2972 2969 2966 2963 2960 2957 2955 2952 2949 2947 2944 2942 2939 2936 2933 2931 2928 2926 2923 2921 2918 2917 2916 2914 2913 2912 2911 2911 2911 2911 2911 2911 2912 2912 2913 2913 2914 2914 2915 2916 2916 2917 2917 2916 2916 2915 2915 2915 2915 2915 2915 2914 2914 2913 2912 2911 2911 2910 2909 2909 2908
2995 2992 2989 2986 2983 2980 2977 2974 2971 2968 2965 2962 2959 2956 2954 2951 2949 2946 2944 2941 2938 2936 2932 2930 2927 2925 2922 2920 2918 2916 2915 2914 2912 2911 2911 2911 2910 2910 2911 2911 2911 2911 2912 2912 2913 2913 2914 2915 2916 2916 2916 2916 2916 2915 2915 2915 2915 2915 2915 2914 2914 2913 2912 2911 2911 2910 2909 2908 2908
2994 2991 2988 2985 2982 2979 2976 2973 2970 2966 2964 2961 2958 2956 2953 2951 2948 2946 2943 2941 2938 2935 2932 2929 2926 2924 2922 2920 2918 2916 2915 2913 2912 2911 2911 2910 2910 2910 2910 2910 2911 2911 2911 2912 2912 2913 2914 2914 2915 2915 2916 2916 2915 2915 2914 2914 2914 2915 2915 2914 2914 2913 2912 2911 2911 2909 2908 2908 2907
2993 2990 2987 2984 2981 2978 2975 2972 2969 2966 2963 2960 2957 2955 2952 2950 2947 2945 2943 2940 2937 2934 2931 2929 2927 2925 2923 2921 2919 2917 2915 2914 2912 2911 2911 2910 2910 2910 2910 2910 2910 2911 2911 2911 2912 2913 2914 2914 2915 2915 2915 2915 2914 2914 2913 2913 2914 2914 2914 2914 2914 2913 2911 2910 2910 2909 2908 2907 2907
2992 2989 2986 2983 2981 2977 2974 2971 2967 2964 2961 2959 2956 2954 2952 2950 2947 2945 2942 2940 2937 2934 2932 2930 2927 2926 2924 2922 2920 2918 2916 2914 2913 2912 2911 2911 2910 2910 2910 2910 2910 2911 2911 2911 2912 2913 2914 2915 2915 2915 2915 2914 2913 2912 2912 2913 2913 2913 2914 2914 2914 2912 2911 2910 2909 2908 2907 2906 2906
2991 2988 2986 2983 2980 2976 2973 2970 2966 2963 2961 2958 2956 2953 2951 2949 2946 2944 2941 2939 2936 2934 2932 2930 2928 2926 2925 2923 2921 2919 2917 2915 2913 2912 2912 2911 2911 2910 2910 2910 2910 2911 2911 2911 2912 2913 2914 2915 2915 2915 2914 2913 2911 2911 2911 2912 2912 2913 2913 2913 2913 2911 2910 2908 2908 2909 2908 2907 2906
2991 2988 2985 2982 2979 2976 2972 2969 2966 2962 2960 2957 2955 2952 2950 2948 2946 2943 2941 2938 2936 2934 2932 2930 2928 2926 2925 2923 2921 2920 2918 2916 2915 2913 2913 2912 2911 2911 2910 2910 2910 2911 2911 2911 2912 2913 2915 2915 2916 2915 2913 2911 2911 2911 2911 2911 2912 2912 2912 2912 2912 2911 2908 2906 2906 2906 2908 2908 2907
2990 2987 2984 2981 2978 2975 2971 2968 2965 2962 2959 2956 2954 2952 2950 2947 2945 2943 2941 2938 2936 2933 2931 2930 2928 2927 2925 2924 2922 2921 2919 2917 2916 2914 2914 2913 2912 2911 2911 2911 2911 2911 2911 2912 2912 2914 2916 2916 2916 2914 2912 2911 2911 2911 2911 2911 2911 2911 2912 2912 2911 2910 2908 2906 2905 2905 2906 2907 2907
2989 2986 2983 2980 2977 2974 2971 2967 2964 2961 2958 2956 2953 2951 2949 2947 2945 2943 2941 2938 2936 2934 2932 2930 2929 2927 2926 2924 2922 2921 2920 2919 2917 2916 2915 2914 2913 2912 2912 2911 2911 2911 2911 2912 2913 2914 2916 2915 2915 2914 2912 2910 2910 2910 2910 2910 2911 2911 2911 2911 2910 2909 2908 2907 2906 2906 2906 2905 2906
2988 2985 2982 2979 2976 2973 2970 2967 2964 2961 2958 2955 2952 2950 2948 2946 2945 2943 2941 2939 2936 2934 2932 2931 2929 2927 2926 2924 2923 2921 2920 2919 2918 2917 2916 2914 2913 2913 2912 2912 2911 2911 2912 2912 2913 2914 2915 2914 2914 2914 2912 2910 2910 2910 2910 2910 2910 2910 2910 2910 2909 2908 2908 2907 2906 2906 2906 2905 2905
2987 2984 2981 2979 2976 2972 2970 2967 2964 2961 2958 2955 2952 2950 2948 2946 2945 2943 2941 2939 2937 2935 2933 2931 2929 2927 2926 2924 2923 2921 2920 2919 2919 2918 2916 2915 2914 2913 2913 2912 2912 2912 2912 2912 2913 2914 2914 2913 2913 2914 2912 2909 2909 2909 2910 2909 2909 2909 2909 2908 2908 2908 2907 2906 2906 2906 2905 2905 2905